sat.trackr.live / text

‹ back to catalog

GSAT0202 (GALILEO 6)

NORAD 40129 · 2014-050B

PAYLOAD ACTIVE UNKNOWN

§ Identity

Operator
Country
ESA
Launch date
2014-08-22
Launch site
FRGUI
Launch vehicle
Mass (kg)
RCS (m²)
2.00

Purposes: earth_obs, nav

External: N2YO · Heavens-Above · Gunter

§ Orbital elements

Epoch: 2026-05-24T10:02:11.268672Z

Period
776.19 min
Inclination
48.9189°
Eccentricity
0.1672128
Mean motion
1.85520556 rev/d
Perigee alt
16,921.1 km
Apogee alt
26,277.4 km
Semi-major
27,977.4 km
B*
0.0000e+0
RAAN
273.4954°
Arg perigee
179.1933°
Mean anomaly
181.1360°
Rev number
8,004

§ Raw data

GSAT0202 (GALILEO 6)1 40129U 14050B   26144.41818598 -.00000092  00000+0  00000+0 0  99972 40129  48.9189 273.4954 1672128 179.1933 181.1360  1.85520556 80040

JSON: /api/v1/satellites/40129 · /tle

For live sub-satellite position, see the globe view (requires WebGL).

§ Visibility from observer

Set your observer location to see the next 7 days of passes ≥ 10°. The values pass through the URL so the page stays shareable.

No JS? Fill the form by hand. The geolocation button needs JavaScript.